Weather in Ozerniy

Russia / Tver Oblast     57°52′10″N   33°41′34″E
temp.,
°C
wind,
m/s
gust,
m/s
humid.,
%
clouds,
%
prec.,
mm/h
press.,
hPa
HPBL,
m
21 april, wed
wed2100:00+3e3793100 0.1 1015790
03:00+3ne3697100 0.8 1012689
06:00+3ne2597100 0.6 1009605
09:00+2nne2499100 1.4 1007294
12:00+2nnw1399100 0.5 1005233
15:00+3wnw2597100 0.7 1005504
18:00+3w3891100 0.1 1006698
21:00+2sw22946 0.1 100739
22 april, thu
thu2200:00+1s3109433 0.0 1007199
03:00+2ssw3109432 0.0 1008220
06:00+3ssw4138856 0.0 1008350
09:00+7ssw497558 0.3 1009490
12:00+12ssw57586 0.6 10091372
15:00+13s575069 1.3 10091796
18:00+12s485861 0.1 10091136
21:00+9sse4127996 0.3 1009576
23 april, fri
fri2300:00+8s4119073 0.4 1009480
03:00+6s2497100 0.4 101098
06:00+6sse2896100 1.1 1009387
09:00+4sw2794100 4.1 1011468
12:00+7ssw3571100 0.1 10121121
15:00+8s3565100 0.3 1013933
18:00+9ssw2359100 0.1 10121177
21:00+6sse1275100 0.3 101234
24 april, sat
sat2400:00+5sse2388100 0.2 101175
03:00+5w1184100 0.4 100937
06:00+3nw3793100 1.4 1008477
09:00+3wnw2596100 2.6 1008431
12:00+5wnw3579100 1.3 1008948
15:00+6wnw2361100 1.6 10071133
18:00+6sw2365100 0.3 1007786
21:00+3sw2385100 0.9 100770
25 april, sun
sun2500:00+1sw26907 0.0 1007150
03:00−1sw26979 0.0 1008151
06:00+1sw3587100 0.0 1008628
09:00+2sw3472100 0.0 1009958
12:00+4sw3564100 0.0 10101214
15:00+6sw455274 0.4 10101636
18:00+7w234694 0.1 10101540
21:00+2w117214 0.1 101210